[[{"header":{"parameterUnit":"m.s-1","parameterCategory":2,"la1":30.2992,"la2":30.254,"lo1":-89.0895,"lo2":-89.0443,"dy":0.0025,"dx":0.0025,"nx":19,"ny":19,"refTime":"2026-04-25T03:00:00:Z","depth":"0","parameterNumber":2,"parameterNumberName":"U-component_of_CURRENTS"},"data":[0,0,0,0.1619,0.162,0.1698,0.1698,0.1728,0.1728,0,0,0,0,0,0,0,0,0,0,0,0.1578,0.1578,0.1618,0.162,0.1698,0.1698,0.1728,0.1728,0,0,0,0,0,0,0,0,0,0,0,0.1578,0.1578,0.1578,0.162,0.1698,0.1698,0.1728,0.1688,0,0,0,0,0,0,0,0,0,0,0.1622,0.1579,0.1578,0.1578,0.1621,0.1698,0.1698,0.1687,0.1691,0.1671,0,0.1669,0,0.17,0.1728,0.1728,0,0,0,0.1627,0.1576,0.161,0.1578,0.1621,0.1698,0.1665,0.169,0.1694,0.1675,0.167,0.1672,0.1701,0.1728,0.1728,0.1669,0.1669,0,0,0.1623,0.1582,0.1608,0.1612,0.1623,0.1662,0.1667,0.1693,0.1679,0.167,0.1674,0.1701,0.1728,0.1728,0.167,0.1669,0,0,0,0.1606,0.1578,0.1613,0.161,0.163,0.1664,0.167,0.1678,0.1693,0.1674,0.1702,0.1728,0.1728,0.1671,0.167,0.1641,0,0,0,0.1604,0.1569,0.1611,0.1586,0.163,0.1662,0.1653,0.1691,0.1695,0.1702,0.1728,0.1728,0.1671,0.167,0.1643,0.1616,0,0,0,0.1577,0.1566,0.1573,0.1584,0.1619,0.1663,0.168,0.1693,0.1711,0.1728,0.1728,0.1672,0.167,0.1645,0.162,0.161,0,0,0,0.1538,0.1538,0.1571,0.1565,0.1618,0.1641,0.168,0.1688,0.1696,0.1728,0.1671,0.167,0.1646,0.1622,0.1612,0.1609,0.16,0,0,0.1523,0.1534,0.1532,0.1565,0.1577,0.1632,0.1625,0.1651,0.1667,0.1661,0.166,0.1643,0.162,0.1611,0.1525,0.1519,0,0,0,0.1518,0.152,0.1524,0.1537,0.1562,0.1576,0.1612,0.1624,0.1627,0.1665,0.1621,0.1607,0.1603,0.1604,0.1598,0.1562,0.1663,0.1663,0.1663,0.1479,0.1496,0.1489,0.1509,0.1511,0.1534,0.1539,0.1557,0.1582,0.1569,0.1568,0.1517,0.1517,0.1513,0.1475,0.1558,0.1558,0.1558,0.1558,0.147,0.1474,0.147,0.1473,0.1474,0.1468,0.1478,0.1493,0.1491,0.1518,0.1516,0.1554,0.1505,0.1467,0.1556,0.1556,0.1556,0.1557,0.1557,0.1473,0.1472,0.1468,0.1459,0.1437,0.1435,0.1413,0.1427,0.1451,0.1441,0.146,0.1461,0.1443,0.145,0.145,0.145,0.145,0.1449,0.1449,0.1476,0.147,0.1463,0.1447,0.1427,0.1399,0.1378,0.137,0.1386,0.141,0.1411,0.1406,0.1484,0.1506,0.1447,0.1447,0.1447,0.1448,0.1448,0.1484,0.1483,0.147,0.1453,0.1399,0.1351,0.134,0.1317,0.1324,0.1329,0.1338,0.1404,0.1414,0.1419,0.1439,0.1365,0.1365,0.1365,0.1365,0.1487,0.1488,0.1456,0.1424,0.1378,0.1324,0.1254,0.1248,0.1273,0.1284,0.1282,0.13,0.1305,0.131,0.1318,0.1336,0.1237,0.1237,0.1237,0.148,0.1472,0.1446,0.1416,0.1356,0.1287,0.1192,0.116,0.1219,0.1228,0.1228,0.1234,0.1258,0.1269,0.1279,0.1292,0.1323,0,0]},{"header":{"parameterUnit":"m.s-1","parameterCategory":2,"la1":30.2992,"la2":30.254,"lo1":-89.0895,"lo2":-89.0443,"dy":0.0025,"dx":0.0025,"nx":19,"ny":19,"refTime":"2026-04-25T03:00:00:Z","depth":"0","parameterNumber":3,"parameterNumberName":"V-component_of_CURRENTS"},"data":[0,0,0,-0.1373,-0.1375,-0.1453,-0.1453,-0.1362,-0.1361,0,0,0,0,0,0,0,0,0,0,0,-0.1336,-0.1336,-0.1373,-0.1376,-0.1452,-0.1453,-0.1362,-0.1361,0,0,0,0,0,0,0,0,0,0,0,-0.1335,-0.1336,-0.1337,-0.1376,-0.1452,-0.1453,-0.1362,-0.1347,0,0,0,0,0,0,0,0,0,0,-0.1293,-0.1263,-0.1336,-0.1337,-0.1377,-0.1452,-0.1453,-0.1348,-0.1347,-0.1279,0,-0.1303,0,-0.1338,-0.1352,-0.1352,0,0,0,-0.1357,-0.1263,-0.1319,-0.1337,-0.1377,-0.1452,-0.1412,-0.1349,-0.1348,-0.1277,-0.1303,-0.1301,-0.1337,-0.1351,-0.1351,-0.1167,-0.1166,0,0,-0.1352,-0.1307,-0.1321,-0.132,-0.141,-0.141,-0.1415,-0.1351,-0.1328,-0.1303,-0.13,-0.1335,-0.135,-0.1349,-0.1168,-0.1167,0,0,0,-0.1353,-0.1303,-0.1364,-0.1322,-0.1356,-0.1413,-0.1418,-0.1331,-0.1363,-0.13,-0.1334,-0.135,-0.1348,-0.1169,-0.1168,-0.1114,0,0,0,-0.1349,-0.1307,-0.1363,-0.133,-0.1359,-0.1363,-0.1399,-0.1367,-0.1362,-0.1335,-0.135,-0.1347,-0.117,-0.1168,-0.1118,-0.1086,0,0,0,-0.133,-0.1303,-0.1326,-0.1329,-0.1377,-0.1367,-0.1393,-0.1367,-0.1382,-0.1351,-0.1346,-0.1171,-0.1169,-0.1121,-0.1092,-0.1029,0,0,0,-0.1262,-0.126,-0.1324,-0.1316,-0.1377,-0.1389,-0.1394,-0.1381,-0.1355,-0.1349,-0.117,-0.1168,-0.1122,-0.1095,-0.1033,-0.1012,-0.0991,0,0,-0.122,-0.1252,-0.125,-0.1311,-0.1308,-0.1377,-0.1316,-0.1294,-0.1285,-0.1177,-0.1175,-0.1116,-0.1092,-0.103,-0.0869,-0.0853,0,0,0,-0.1211,-0.1207,-0.1217,-0.1233,-0.1273,-0.1252,-0.1268,-0.1241,-0.1159,-0.1265,-0.1081,-0.1066,-0.103,-0.1024,-0.101,-0.0887,-0.1156,-0.1157,-0.1157,-0.106,-0.1113,-0.1094,-0.1147,-0.1145,-0.1152,-0.1114,-0.1068,-0.1091,-0.1034,-0.0997,-0.0875,-0.0867,-0.0857,-0.073,-0.0971,-0.0971,-0.097,-0.097,-0.0987,-0.0991,-0.1014,-0.1023,-0.1022,-0.098,-0.0931,-0.0934,-0.0846,-0.089,-0.0858,-0.0934,-0.084,-0.0709,-0.0966,-0.0967,-0.0967,-0.0968,-0.0968,-0.0913,-0.0926,-0.0937,-0.0946,-0.0896,-0.0894,-0.0827,-0.0803,-0.0771,-0.074,-0.074,-0.0741,-0.0649,-0.0733,-0.0732,-0.0732,-0.0731,-0.0731,-0.0731,-0.0851,-0.0865,-0.0873,-0.0878,-0.087,-0.0837,-0.0775,-0.0735,-0.0672,-0.0657,-0.0657,-0.057,-0.0803,-0.0839,-0.0724,-0.0725,-0.0726,-0.0727,-0.0727,-0.0803,-0.0826,-0.0839,-0.0843,-0.0832,-0.0781,-0.0743,-0.0635,-0.0583,-0.0534,-0.0398,-0.0607,-0.0619,-0.063,-0.0661,-0.0506,-0.0506,-0.0506,-0.0506,-0.0772,-0.0785,-0.081,-0.0819,-0.0801,-0.0755,-0.0638,-0.0533,-0.0363,-0.0256,-0.0235,-0.027,-0.0285,-0.028,-0.0299,-0.0324,-0.0087,-0.0087,-0.0086,-0.0745,-0.0766,-0.0772,-0.0802,-0.0784,-0.0716,-0.057,-0.0408,-0.0181,-0.0056,-0.0056,-0.0074,-0.0119,-0.0152,-0.0148,-0.0185,-0.0229,0,0]}],[{"header":{"parameterUnit":"m.s-1","parameterCategory":2,"la1":30.2992,"la2":30.254,"lo1":-89.0895,"lo2":-89.0443,"dy":0.0025,"dx":0.0025,"nx":19,"ny":19,"refTime":"2026-04-25T03:00:00:Z","depth":"2","parameterNumber":2,"parameterNumberName":"U-component_of_CURRENTS"},"data":[0,0,0,0.0516,0.0516,0.0525,0.0525,0.0542,0.0543,0,0,0,0,0,0,0,0,0,0,0,0.0516,0.0516,0.0516,0.0516,0.0525,0.0525,0.0542,0.0543,0,0,0,0,0,0,0,0,0,0,0,0.0516,0.0516,0.0516,0.0516,0.0525,0.0525,0.0542,0.0534,0,0,0,0,0,0,0,0,0,0,0.0525,0.0532,0.0516,0.0516,0.0516,0.0525,0.0525,0.0534,0.0535,0.054,0,0.0544,0,0.0543,0.0544,0.0544,0,0,0,0.0516,0.0531,0.0525,0.0516,0.0516,0.0525,0.0521,0.0534,0.0535,0.0541,0.0544,0.0544,0.0543,0.0544,0.0544,0.0608,0.0608,0,0,0.0516,0.0525,0.0524,0.0526,0.0522,0.0521,0.0521,0.0535,0.0543,0.0544,0.0545,0.0543,0.0544,0.0544,0.0607,0.0608,0,0,0,0.0514,0.0525,0.0519,0.0525,0.0526,0.0521,0.0522,0.0542,0.0538,0.0545,0.0543,0.0544,0.0544,0.0607,0.0608,0.0639,0,0,0,0.0514,0.0524,0.0518,0.0525,0.0525,0.0535,0.0529,0.0537,0.0538,0.0543,0.0544,0.0545,0.0606,0.0607,0.0636,0.0649,0,0,0,0.0515,0.0524,0.0524,0.0526,0.0528,0.0535,0.0532,0.0537,0.0537,0.0544,0.0545,0.0606,0.0607,0.0634,0.0646,0.0658,0,0,0,0.0525,0.0545,0.0525,0.0544,0.0528,0.0536,0.0532,0.0543,0.0551,0.0544,0.0606,0.0607,0.0634,0.0644,0.0656,0.0664,0.0673,0,0,0.0557,0.0549,0.0559,0.0541,0.0555,0.0534,0.0563,0.0571,0.0575,0.06,0.0602,0.0637,0.0646,0.0658,0.0741,0.0747,0,0,0,0.0573,0.0587,0.0584,0.0589,0.0576,0.0586,0.0584,0.0595,0.0632,0.0586,0.0655,0.0661,0.0666,0.0668,0.0674,0.0614,0.0614,0.0613,0.0613,0.0643,0.0628,0.065,0.0637,0.0637,0.063,0.0646,0.0668,0.0654,0.0687,0.0699,0.0749,0.0753,0.0757,0.0715,0.0715,0.0716,0.0716,0.0716,0.0708,0.0726,0.0706,0.0725,0.0709,0.0725,0.0727,0.0727,0.0762,0.075,0.0754,0.0719,0.0764,0.0719,0.0718,0.0718,0.0717,0.0717,0.0717,0.0774,0.0778,0.0784,0.0798,0.0805,0.0783,0.0789,0.0788,0.08,0.0813,0.08,0.08,0.0751,0.0809,0.0809,0.0809,0.0809,0.081,0.081,0.0833,0.0836,0.0859,0.0865,0.086,0.0846,0.0824,0.082,0.0828,0.084,0.084,0.078,0.0777,0.0757,0.0812,0.0811,0.0811,0.0811,0.0811,0.0903,0.0896,0.093,0.0933,0.0907,0.0838,0.0854,0.0837,0.0847,0.0855,0.0853,0.0851,0.0838,0.0834,0.0816,0.0883,0.0883,0.0883,0.0883,0.094,0.0942,0.0964,0.0959,0.0928,0.0834,0.0765,0.0698,0.0721,0.0706,0.0712,0.068,0.0683,0.0658,0.0658,0.0634,0.0653,0.0652,0.0652,0.0965,0.0971,0.0985,0.0973,0.0922,0.0793,0.0658,0.0438,0.038,0.0633,0.0572,0.0887,0.0859,0.0856,0.0832,0.0826,0.0794,0,0]},{"header":{"parameterUnit":"m.s-1","parameterCategory":2,"la1":30.2992,"la2":30.254,"lo1":-89.0895,"lo2":-89.0443,"dy":0.0025,"dx":0.0025,"nx":19,"ny":19,"refTime":"2026-04-25T03:00:00:Z","depth":"2","parameterNumber":3,"parameterNumberName":"V-component_of_CURRENTS"},"data":[0,0,0,-0.0129,-0.013,-0.0183,-0.0183,-0.0139,-0.0138,0,0,0,0,0,0,0,0,0,0,0,-0.0122,-0.0123,-0.0129,-0.013,-0.0183,-0.0183,-0.0139,-0.0138,0,0,0,0,0,0,0,0,0,0,0,-0.0122,-0.0123,-0.0124,-0.013,-0.0183,-0.0183,-0.0139,-0.0127,0,0,0,0,0,0,0,0,0,0,-0.0089,-0.0109,-0.0123,-0.0124,-0.0131,-0.0183,-0.0183,-0.0127,-0.0127,-0.0084,0,-0.0108,0,-0.0115,-0.0133,-0.0133,0,0,0,-0.0128,-0.011,-0.0113,-0.0124,-0.0131,-0.0183,-0.0159,-0.0128,-0.0128,-0.0083,-0.0108,-0.0106,-0.0114,-0.0132,-0.0132,-0.0069,-0.0069,0,0,-0.0125,-0.0135,-0.0113,-0.0113,-0.0163,-0.0157,-0.016,-0.0129,-0.014,-0.0107,-0.0106,-0.0113,-0.0132,-0.0131,-0.0069,-0.0069,0,0,0,-0.0118,-0.0134,-0.014,-0.0115,-0.013,-0.0158,-0.0162,-0.0142,-0.0142,-0.0105,-0.0113,-0.0131,-0.013,-0.0069,-0.0069,-0.0111,0,0,0,-0.0116,-0.0129,-0.0139,-0.0146,-0.0131,-0.0154,-0.0176,-0.0145,-0.0142,-0.0113,-0.0131,-0.013,-0.0069,-0.0069,-0.011,-0.0116,0,0,0,-0.0117,-0.0129,-0.0139,-0.0146,-0.0168,-0.0155,-0.0154,-0.0145,-0.0145,-0.0133,-0.0129,-0.0069,-0.0069,-0.0109,-0.0114,-0.0072,0,0,0,-0.0118,-0.0135,-0.014,-0.0153,-0.0168,-0.0158,-0.0155,-0.0163,-0.0157,-0.0131,-0.0069,-0.0069,-0.0109,-0.0114,-0.0072,0.0055,0.0066,0,0,-0.013,-0.0137,-0.0138,-0.0143,-0.0138,-0.0149,-0.0138,-0.0144,-0.0133,-0.0071,-0.007,-0.0111,-0.0114,-0.0072,0.0068,0.0079,0,0,0,-0.0134,-0.0143,-0.0138,-0.0146,-0.0134,-0.0135,-0.0139,-0.013,-0.0126,-0.0129,-0.0094,-0.0094,-0.0066,0.0011,0.0019,-0.0068,-0.0068,-0.0068,-0.0068,-0.0173,-0.0155,-0.0154,-0.0138,-0.0134,-0.0127,-0.0119,-0.0106,-0.0107,-0.0119,-0.0117,-0.0097,-0.0017,-0.0009,-0.011,-0.011,-0.011,-0.011,-0.011,-0.0178,-0.0166,-0.0163,-0.0165,-0.0154,-0.0156,-0.0111,-0.0123,-0.0096,-0.0119,-0.009,-0.0024,-0.0002,-0.0113,-0.0113,-0.0112,-0.0112,-0.0112,-0.0112,-0.0184,-0.0171,-0.0195,-0.0199,-0.021,-0.0197,-0.0174,-0.0155,-0.0126,-0.0117,-0.0006,-0.0004,-0.0105,-0.0114,-0.0113,-0.0113,-0.0113,-0.0113,-0.0113,-0.0174,-0.0184,-0.0213,-0.0228,-0.0251,-0.0258,-0.0225,-0.0184,-0.0075,-0.002,-0.0018,-0.0097,-0.0097,-0.0103,-0.0111,-0.0111,-0.0111,-0.0112,-0.0112,-0.0136,-0.0178,-0.0207,-0.0241,-0.0273,-0.0202,-0.0216,-0.0074,-0.0023,0.0068,0.0071,0.0066,0.0106,0.0102,0.0102,0.0148,0.0148,0.0148,0.0148,-0.0122,-0.0137,-0.0198,-0.0235,-0.0243,-0.0172,-0.004,0.0134,0.0269,0.0402,0.0391,0.0409,0.0393,0.045,0.0438,0.0445,0.058,0.0581,0.0582,-0.0089,-0.0124,-0.0158,-0.0218,-0.0225,-0.0088,0.011,0.0344,0.0605,0.0598,0.0456,0.0179,0.0176,0.0163,0.0225,0.0214,0.0216,0,0]}],[{"header":{"parameterUnit":"m.s-1","parameterCategory":2,"la1":30.2992,"la2":30.254,"lo1":-89.0895,"lo2":-89.0443,"dy":0.0025,"dx":0.0025,"nx":19,"ny":19,"refTime":"2026-04-25T03:00:00:Z","depth":"4","parameterNumber":2,"parameterNumberName":"U-component_of_CURRENTS"},"data":[0,0,0,-0.0531,-0.0531,-0.0493,-0.0492,-0.0431,-0.043,0,0,0,0,0,0,0,0,0,0,0,-0.0548,-0.0548,-0.0531,-0.0531,-0.0493,-0.0492,-0.0431,-0.043,0,0,0,0,0,0,0,0,0,0,0,-0.0548,-0.0548,-0.0548,-0.0531,-0.0493,-0.0492,-0.0431,-0.0459,0,0,0,0,0,0,0,0,0,0,-0.0496,-0.0518,-0.0548,-0.0548,-0.0531,-0.0493,-0.0492,-0.0461,-0.0458,-0.045,0,-0.0458,0,-0.0448,-0.0428,-0.0427,0,0,0,-0.0515,-0.0521,-0.0514,-0.0548,-0.0531,-0.0493,-0.0505,-0.0459,-0.0455,-0.0445,-0.0457,-0.0454,-0.0447,-0.0427,-0.0427,-0.0305,-0.0304,0,0,-0.0517,-0.0533,-0.0517,-0.0513,-0.0539,-0.0507,-0.0505,-0.0457,-0.0459,-0.0456,-0.0453,-0.0446,-0.0427,-0.0427,-0.0306,-0.0304,0,0,0,-0.0534,-0.0534,-0.0528,-0.0515,-0.0512,-0.0506,-0.0503,-0.046,-0.046,-0.0452,-0.0445,-0.0427,-0.0426,-0.0307,-0.0305,-0.0299,0,0,0,-0.0534,-0.0545,-0.053,-0.0537,-0.0514,-0.0488,-0.0508,-0.0463,-0.0458,-0.0446,-0.0427,-0.0426,-0.0308,-0.0306,-0.0302,-0.0352,0,0,0,-0.0546,-0.0546,-0.0548,-0.0538,-0.0528,-0.0488,-0.0484,-0.0462,-0.0454,-0.0427,-0.0426,-0.0309,-0.0306,-0.0304,-0.0353,-0.0386,0,0,0,-0.0552,-0.0549,-0.0548,-0.0537,-0.0529,-0.0499,-0.0484,-0.045,-0.0426,-0.0426,-0.0308,-0.0305,-0.0305,-0.0354,-0.0386,-0.0342,0,0,0,-0.0546,-0.0549,-0.0539,-0.0537,-0.0514,-0.0502,-0.0453,-0.0415,-0.0381,-0.0323,-0.032,-0.0301,-0.0354,-0.0386,-0.0199,0,0,0,0,-0.0534,-0.0529,-0.0519,-0.051,-0.0495,-0.0465,-0.0429,-0.0394,-0.0309,-0.0359,-0.0253,-0.0287,-0.0308,-0.0278,-0.0293,-0.0294,-0.0294,-0.0294,-0.0295,-0.0524,-0.0516,-0.05,-0.0486,-0.0469,-0.0428,-0.0399,-0.0337,-0.0295,-0.0235,-0.0244,-0.022,-0.0178,-0.0173,-0.0173,-0.0173,-0.0173,-0.0173,-0.0173,-0.0487,-0.0474,-0.0476,-0.0451,-0.044,-0.0396,-0.0343,-0.0304,-0.0254,-0.02,-0.0219,-0.0225,-0.0171,-0.0171,-0.0171,-0.0172,-0.0172,-0.0172,-0.0172,-0.0452,-0.0454,-0.0442,-0.0423,-0.0395,-0.0353,-0.033,-0.0291,-0.0262,-0.0272,-0.0232,-0.0238,-0.0286,-0.0253,-0.0253,-0.0254,-0.0254,-0.0254,-0.0254,-0.0425,-0.0425,-0.0407,-0.0385,-0.0369,-0.034,-0.0314,-0.0317,-0.0298,-0.0254,-0.0266,-0.0249,-0.0246,-0.029,-0.0259,-0.0258,-0.0258,-0.0257,-0.0257,-0.0383,-0.0391,-0.0366,-0.0354,-0.0332,-0.0323,-0.0316,-0.0303,-0.0319,-0.0318,-0.0253,-0.0252,-0.0273,-0.0271,-0.0317,-0.0294,-0.0293,-0.0292,0,-0.0362,-0.0362,-0.0342,-0.0326,-0.0316,-0.0314,-0.0297,-0.0307,-0.0308,-0.0285,-0.0356,-0.0284,-0.0281,-0.0306,-0.0303,-0.0357,0,0,0,-0.0338,-0.0342,-0.0319,-0.0313,-0.03,-0.0293,-0.0294,-0.0272,-0.0293,-0.0285,-0.0278,-0.0282,-0.0283,-0.0274,-0.0305,-0.0302,-0.0376,0,0]},{"header":{"parameterUnit":"m.s-1","parameterCategory":2,"la1":30.2992,"la2":30.254,"lo1":-89.0895,"lo2":-89.0443,"dy":0.0025,"dx":0.0025,"nx":19,"ny":19,"refTime":"2026-04-25T03:00:00:Z","depth":"4","parameterNumber":3,"parameterNumberName":"V-component_of_CURRENTS"},"data":[0,0,0,0.0655,0.0656,0.0728,0.0728,0.0779,0.0779,0,0,0,0,0,0,0,0,0,0,0,0.0633,0.0634,0.0655,0.0657,0.0728,0.0728,0.0779,0.0779,0,0,0,0,0,0,0,0,0,0,0,0.0633,0.0634,0.0634,0.0657,0.0728,0.0728,0.0778,0.0736,0,0,0,0,0,0,0,0,0,0,0.0672,0.0651,0.0634,0.0634,0.0657,0.0728,0.0728,0.0734,0.0738,0.0733,0,0.0747,0,0.076,0.0781,0.0781,0,0,0,0.0661,0.0648,0.0671,0.0634,0.0658,0.0728,0.0697,0.0737,0.0742,0.0738,0.0748,0.075,0.0761,0.0781,0.0781,0.0881,0.0882,0,0,0.0657,0.0642,0.0668,0.0674,0.0679,0.0695,0.0699,0.074,0.0743,0.0748,0.0751,0.0762,0.0781,0.0781,0.0881,0.0882,0,0,0,0.0643,0.0639,0.0662,0.0672,0.0686,0.0697,0.0702,0.0741,0.075,0.0752,0.0762,0.0781,0.0782,0.088,0.0881,0.0864,0,0,0,0.064,0.0631,0.066,0.0651,0.0685,0.0718,0.0701,0.0748,0.0753,0.0762,0.0781,0.0782,0.0879,0.088,0.0863,0.0834,0,0,0,0.063,0.0629,0.0639,0.0651,0.068,0.0718,0.073,0.0749,0.0758,0.0781,0.0782,0.0878,0.088,0.0861,0.0833,0.0806,0,0,0,0.0609,0.0609,0.0639,0.0635,0.0679,0.0701,0.073,0.0772,0.0794,0.0782,0.0879,0.0881,0.0861,0.0832,0.0806,0.0725,0,0,0,0.0593,0.0607,0.0601,0.0629,0.0625,0.0691,0.0727,0.0789,0.0826,0.086,0.0863,0.0863,0.0833,0.0806,0.085,0,0,0,0,0.0583,0.0583,0.0584,0.0594,0.0621,0.0695,0.0767,0.0786,0.0867,0.0849,0.0911,0.0893,0.0875,0.0832,0.0891,0.0891,0.0891,0.089,0.089,0.0546,0.0554,0.056,0.0603,0.0623,0.0707,0.0746,0.0809,0.086,0.0917,0.0915,0.093,0.0891,0.0968,0.0968,0.0968,0.0968,0.0968,0.0968,0.0512,0.053,0.0555,0.0585,0.0663,0.0731,0.0781,0.0835,0.0876,0.0931,0.0915,0.0864,0.0968,0.0968,0.0968,0.0968,0.0968,0.0968,0.0968,0.0496,0.0518,0.0564,0.0615,0.0701,0.0793,0.0814,0.0858,0.0872,0.0862,0.0843,0.0913,0.087,0.089,0.0889,0.0889,0.0889,0.0889,0.0889,0.0486,0.0526,0.0588,0.0654,0.0723,0.0795,0.0856,0.0832,0.0836,0.0809,0.0885,0.0903,0.0906,0.0867,0.0885,0.0886,0.0886,0.0887,0.0887,0.0446,0.0523,0.0578,0.0644,0.0724,0.074,0.0814,0.0768,0.0719,0.065,0.076,0.0767,0.0753,0.0759,0.0713,0.0687,0.0686,0.0685,0,0.0446,0.0474,0.0584,0.0635,0.0639,0.0684,0.0632,0.0616,0.0601,0.0616,0.0653,0.0778,0.0783,0.0768,0.0772,0.072,0,0,0,0.0411,0.0473,0.0531,0.0613,0.0604,0.0558,0.0609,0.0597,0.065,0.0561,0.0659,0.0666,0.0744,0.0876,0.087,0.0873,0.0809,0,0]}]]